singapore: the smallest big galery
home » forum » Mods

You are not logged in.

Mods

Topic Replies Views Last post
0 72 2017-02-28 15:00:40 by linrx
wordpress template by gingster
8 18597 2013-07-09 13:04:18 by SPOT LIGHTSA
8 9162 2013-06-10 13:13:10 by political
imagemap_navigation = off by snapfamous
2 4286 2013-06-04 04:57:25 by 5Linx a
paypal integration by bwaje
7 11711 2013-05-01 13:30:28 by Mlm
pagination by eddiejanzer
3 7568 2013-04-17 06:43:04 by Rocky90241
Exif howto by bluemoon
13 21187 2013-01-30 09:37:52 by tentionfree
0 2308 2013-01-30 08:06:25 by DavidElise
0 2268 2013-01-30 07:23:28 by seven22
0 2371 2013-01-24 14:42:14 by cheapserviceget
0 2405 2013-01-22 07:08:27 by leopold89
Moving images via admin by forty two  [ 1 2 3 ]
39 66880 2013-01-21 07:48:47 by amusalin
Full Size Image Popup by quicksketch
14 35240 2013-01-17 08:59:30 by forger
0 2414 2012-12-06 06:18:01 by Mattiy
1 4821 2011-12-01 06:42:20 by dick123
facebook like button? by steliosk
4 6565 2011-08-25 21:28:10 by PrimaFoto
2 4407 2011-08-22 20:50:53 by focale31
1 3586 2011-07-05 07:20:25 by mikeatx
2 5211 2011-06-27 19:47:31 by DC
7 13300 2011-06-22 18:04:53 by pcphotos
9 25522 2011-03-27 17:18:14 by DC
14 24925 2010-01-21 15:48:06 by phyllis01
1 4721 2010-01-20 01:56:41 by DC
upload multiple files by eddiejanzer
9 16626 2009-05-18 17:58:31 by PrimaFoto
0 4630 2009-05-13 05:28:55 by DC
8 20066 2008-11-03 04:22:36 by DC
Posting comments by VSingh
1 5464 2008-10-26 22:02:55 by DC
1 6118 2008-09-12 11:54:11 by crash01
4 9488 2008-07-16 22:38:21 by DC
singapore and wordpress by eddiejanzer
3 8376 2008-03-27 13:13:52 by pavian